Regional Weather Roundup
Issued by NWS Little Rock, AR

Home | Current Version | Previous Version | Graphics & Text | Print | Product List | Glossary On
Versions: 1 2 3 4 5 6 7 8 9 10 11 12 13 14 15 16 17 18 19 20 21 22 23 24 25 26 27 28 29 30 31 32 33 34 35 36 37 38 39 40 41 42 43 44 45 46 47 48 49 50
000
ASUS44 KLZK 250305
RWRLZK

WEATHER ROUNDUP FOR ARKANSAS
NATIONAL WEATHER SERVICE LITTLE ROCK AR
1000 PM CDT FRI APR 24 2015

NOTE: "FAIR" INDICATES FEW OR NO CLOUDS BELOW 12,000 FEET WITH NO
SIGNIFICANT WEATHER AND/OR OBSTRUCTIONS TO VISIBILITY.

ARZ001-003-010-029-250400-
NORTHWEST ARKANSAS

CITY           SKY/WX    TMP DP  RH WIND       PRES   REMARKS
FAYETTEVILLE   CLOUDY    60  58  92 S10G22    29.66F
FORT SMITH     CLOUDY    62  59  90 NE9       29.66F
HARRISON       LGT RAIN  60  58  92 SE12      29.67F
BENTONVILLE    CLOUDY    61  54  77 S5        29.66F
ROGERS         CLOUDY    60  56  86 S9        29.66F
SILOAM SPGS    CLOUDY    61  52  72 S10       29.66F
HIGHFILL       CLOUDY    60  56  86 S9        29.65F
$$

ARZ004-005-016-250400-
NORTH CENTRAL ARKANSAS

CITY           SKY/WX    TMP DP  RH WIND       PRES   REMARKS
BATESVILLE     CLOUDY    57  55  94 E18       29.66F
FLIPPIN        CLOUDY    61  57  88 SE3       29.69S
MTN HOME       CLOUDY    57  56  96 CALM      29.69F
$$

ARZ040-041-250400-
WEST CENTRAL ARKANSAS

CITY           SKY/WX    TMP DP  RH WIND       PRES   REMARKS
MENA           CLOUDY    63  61  94 E6        29.69F
MOUNT IDA      RAIN      61  61 100 CALM      29.73R FOG
$$

ARZ009-017-025-026-028-250400-
NORTHEAST ARKANSAS

CITY           SKY/WX    TMP DP  RH WIND       PRES   REMARKS
CORNING          N/A     55  55 100 S14G22    29.77F
JONESBORO      LGT RAIN  55  55 100 S14G24    29.81F
NEWPORT        LGT RAIN  56  56 100 S13       29.80F
WALNUT RIDGE   CLOUDY    55  52  88 S15       29.77F
BLYTHEVILLE    LGT RAIN  56  55  97 S15       29.85F
$$

ARZ022-023-033-042-044-250400-
CENTRAL ARKANSAS

CITY           SKY/WX    TMP DP  RH WIND       PRES   REMARKS
LITTLE ROCK    TSTM      59  55  88 SE15      29.75F FOG
N LITTLE ROCK  CLOUDY    58  58 100 SE14      29.77F
JACKSONVILLE   LGT RAIN  59  58  99 SE17      29.70F
SEARCY         LGT RAIN  57  57 100 SE12      29.76F
HOT SPRINGS    CLOUDY    61  59  93 E12G18    29.73F
RUSSELLVILLE   CLOUDY    61  60  97 E8        29.72F
CLINTON        CLOUDY    59  59 100 CALM      29.75F
$$

ARZ036-250400-
EAST ARKANSAS

CITY           SKY/WX    TMP DP  RH WIND       PRES   REMARKS
WEST MEMPHIS   LGT RAIN  56  56 100 SE13      29.85F FOG
$$

ARZ050-053-066-070-073-250400-
SOUTHWEST ARKANSAS

CITY           SKY/WX    TMP DP  RH WIND       PRES   REMARKS
ARKADELPHIA    RAIN      61  61 100 VRB5      29.77F FOG
CAMDEN           N/A     61  59  94 NE6       29.78R
TEXARKANA      TSTM      62  62 100 W21G30    29.87R VSB 3/4
EL DORADO      LGT RAIN  62  61  96 N15       29.78R
DE QUEEN       HVY RAIN  62  61  96 SE13G18   29.72S FOG
$$

ARZ056-057-069-250400-
SOUTHEAST ARKANSAS

CITY           SKY/WX    TMP DP  RH WIND       PRES   REMARKS
PINE BLUFF     TSTM      58  58 100 CALM      29.83R VSB 3/4
STUTTGART      CLOUDY    57  54  88 E12       29.84R THUNDER
MONTICELLO     TSTM      60  60 100 E8        29.75F FOG

$$





USA.gov is the U.S. government's official web portal to all federal, state and local government web resources and services.